Location: Sungai Apap
(2.6167°N, 113.3833°E)
Time: 14:31:26
(UTC+00:00)

SJ-12 - Pass Details

Date: 25 May 2024
Orbit: 545 x 559 km, 97.8° (Epoch: 12 June)

Event Time Altitude Azimuth Distance (km) Brightness Sun altitude
Rises 21:24:33 0° 16° (NNE) 2,694 7.9 -12.7°
Reaches altitude 10° 21:26:41 10° 19° (NNE) 1,805 7.0 -12.3°
Maximum altitude 21:30:33 66° 101° (E) 595 4.2 -11.4°
Drops below altitude 10° 21:34:26 10° 184° (S) 1,816 6.2 -10.5°
Sets 21:36:35 0° 187° (S) 2,712 7.1 -10.0°
